Presure
235 251 251 249 296 298 273 275 288 326 338 387 327 311 295 261 244 233 126 126 124 125 126 130 210 198 191 178 181 190 180 178 172 164 167 168 164 162 89 88 161 115 167
236 236 246 244 277 277 266 292 281 280 295 324 348 303 302 283 254 207 239 211 179 229 215 228 224 215 205 191 184 185 187 184 178 176 176 169 149 149 152 111 110 164 126
239 234 243 242 225 250 274 265 283 270 287 287 300 337 314 284 271 255 232 238 222 229 228 212 230 230 203 208 188 187 191 184 186 184 179 174 176 171 171 168 134 169 166
240 233 239 238 236 249 277 277 261 265 270 281 308 332 339 290 275 253 239 231 220 236 206 284 206 196 246 211 209 190 180 187 189 185 184 185 174 173 176 175 170 169 168
242 233 236 231 239 220 254 240 256 295 266 309 312 320 332 311 274 253 242 236 202 201 208 211 242 236 86 200 247 210 200 185 192 189 186 189 146 146 180 143 144 174 136
243 235 229 233 234 230 230 251 265 280 283 270 267 330 322 336 276 257 241 232 218 211 201 211 219 209 219 206 195 231 224 195 195 134 189 185 188 193 179 169 178 180 171
245 238 232 233 235 224 233 247 248 263 269 300 261 266 307 324 276 259 242 234 224 230 227 211 208 231 220 220 174 180 183 226 227 198 191 193 206 171 164 180 188 185 184
247 243 235 228 237 235 222 227 243 255 250 255 254 285 295 362 272 250 239 228 223 210 188 215 209 198 206 219 200 205 225 206 210 220 213 198 188 187 179 162 190 187 192
247 237 235 233 226 227 234 226 227 242 241 250 242 254 259 269 269 248 237 230 224 230 212 199 214 207 224 220 234 204 204 212 214 210 201 220 197 211 201 191 190 177 172
250 244 239 234 231 236 224 222 224 226 240 256 240 230 252 256 245 236 232 230 223 224 213 223 193 209 175 218 229 225 227 231 212 210 180 199 226 228 217 208 214 200 190
258 247 241 235 232 229 234 229 228 224 228 232 250 245 237 248 239 235 224 223 221 212 209 206 210 208 194 209 202 205 198 200 206 220 208 195 231 208 211 234 232 230 225
269 257 246 240 233 228 226 228 226 235 225 230 228 257 238 250 235 247 233 223 215 222 212 208 208 213 207 209 207 220 217 197 179 220 217 215 217 224 226 185 225 194 224
273 262 261 245 239 232 233 228 230 224 232 219 228 232 251 239 263 245 225 217 223 223 208 208 218 208 164 173 178 173 196 184 187 205 188 207 206 191 212 203 235 229 224
273 280 268 257 244 237 235 232 233 228 225 227 230 223 233 242 249 253 209 220 224 202 202 215 213 197 200 207 187 211 198 196 213 208 212 210 214 214 211 208 200 209 211
275 272 269 261 251 242 236 236 232 237 237 232 230 226 231 224 232 237 253 241 226 222 219 205 220 228 226 231 223 217 205 178 202 177 181 207 198 192 214 216 203 201 186
238 260 263 257 260 252 242 242 242 238 237 235 237 225 226 221 232 224 231 237 251 226 204 240 214 229 226 220 218 182 227 213 216 216 205 203 203 207 207 203 214 212 213
263 255 263 259 259 241 238 247 246 240 238 234 234 232 250 237 231 228 232 224 225 240 251 253 208 230 222 221 217 208 228 216 214 214 213 214 214 215 214 213 214 187 193
264 249 249 265 246 233 248 246 232 240 238 238 239 241 240 241 243 248 240 230 231 224 228 235 245 230 242 208 223 231 223 225 218 210 209 215 212 207 210 215 212 202 201
273 247 266 261 260 261 240 262 256 253 257 258 244 241 238 238 239 240 241 240 244 245 238 235 221 227 236 242 249 251 246 226 220 220 220 211 209 211 213 237 214 222 215
261 244 277 268 268 280 271 249 250 263 244 230 236 237 233 236 239 241 242 245 253 263 266 269 266 244 239 243 231 230 236 248 248 255 256 252 226 244 242 228 226 230 231
267 249 299 282 284 290 275 262 260 255 249 253 240 234 230 228 242 244 246 244 248 249 250 246 250 255 256 261 269 275 261 248 241 238 239 249 253 255 253 259 260 243 261
268 277 274 278 269 272 275 266 258 253 254 259 245 246 239 238 249 234 234 261 268 252 255 266 266 268 282 285 289 289 283 284 290 293 294 284 269 257 255 254 258 254 258
281 273 278 271 275 270 275 272 273 266 259 260 259 269 260 257 264 269 272 274 273 274 276 275 270 275 281 288 294 294 294 287 295 304 302 305 308 306 299 282 313 309 312
278 276 278 283 280 274 263 247 259 264 249 249 255 259 252 252 256 262 265 268 276 279 282 287 294 308 348 384 388 390 375 348 335 369 388 426 438 453 356 364 347 315 314
272 273 278 264 276 272 272 264 264 265 244 241 249 250 257 265 270 272 274 279 287 304 385 402 471 461 458 451 451 445 440 437 431 429 425 421 418 415 412 409 408 406 406
277 270 269 265 271 266 270 261 253 254 254 254 256 258 263 271 276 290 305 394 422 411 405 397 393 397 398 398 395 392 393 394 393 393 388 384 382 379 378 376 374 376 377
Wind_Speed
37 43 43 43 39 21 27 23 22 16 19 34 84 94 103 103 100 102 71 74 75 75 73 75 100 96 96 93 91 95 93 93 91 88 88 86 85 83 55 53 83 68 83
38 38 43 42 39 30 26 21 18 19 20 17 35 80 94 99 102 86 96 96 80 92 96 95 101 100 98 97 96 96 96 95 95 93 95 90 83 84 85 66 66 88 72
37 39 40 39 37 44 27 21 14 15 12 16 22 34 77 93 98 97 94 88 92 89 91 93 93 99 96 100 99 98 100 97 99 98 96 94 95 96 94 94 81 91 91
31 37 38 37 37 41 22 22 28 12 10 17 23 32 50 87 93 94 90 88 69 64 91 60 94 93 91 98 102 101 100 102 104 101 99 99 98 98 98 97 97 95 95
30 32 35 35 35 29 37 29 29 15 10 22 14 27 41 74 89 90 87 82 98 95 92 88 77 84 44 94 92 103 103 103 108 107 104 105 94 91 104 84 86 99 75
30 31 32 35 32 31 31 33 27 23 18 6 7 17 38 52 86 88 86 87 95 97 90 89 88 87 90 95 97 89 101 106 109 72 109 106 107 110 105 100 106 107 104
32 31 31 32 35 31 30 33 30 26 25 6 16 18 23 46 81 85 85 85 87 78 78 100 92 80 89 92 76 102 105 95 97 111 112 111 113 106 99 108 113 112 111
33 33 32 32 32 31 31 24 27 16 10 15 15 9 14 37 79 80 83 86 87 98 96 94 92 99 98 93 98 99 90 97 103 98 109 117 114 113 106 98 116 116 117
31 35 35 34 32 31 28 28 22 17 19 4 7 10 15 39 70 78 84 85 87 88 95 93 98 98 94 95 90 105 106 103 105 101 103 101 102 120 122 117 117 109 108
32 34 37 36 35 31 31 30 25 20 16 11 16 22 21 39 65 71 77 82 84 92 94 89 95 102 82 92 89 96 94 94 112 109 95 117 107 111 119 118 120 124 117
30 35 36 38 37 35 32 32 30 26 19 15 23 32 42 48 70 80 82 83 88 93 97 99 102 104 101 105 107 105 110 110 107 107 115 106 107 116 112 110 114 116 118
32 33 36 39 40 41 40 35 33 32 31 23 23 34 47 49 70 77 83 90 93 96 104 105 109 109 111 110 102 107 111 112 94 109 109 116 111 107 108 105 112 119 118
31 33 34 40 43 43 44 44 40 36 37 39 33 33 37 56 50 77 84 89 96 99 99 102 115 105 83 89 94 87 113 100 102 114 105 113 118 108 113 117 109 115 114
36 29 32 37 43 46 48 48 47 45 42 43 44 44 43 43 59 69 79 92 98 92 92 110 112 100 103 109 102 118 113 114 121 120 121 120 120 118 119 117 116 118 119
37 33 30 35 41 46 49 51 53 52 52 50 50 52 53 54 54 57 62 91 99 100 100 99 115 119 120 119 124 121 116 105 119 103 107 122 119 114 124 126 122 121 111
46 39 37 39 40 46 52 55 55 57 58 59 59 59 60 64 64 67 67 71 75 97 96 111 105 119 121 123 124 100 124 127 130 133 128 127 127 129 129 127 130 131 130
45 39 39 41 45 48 50 54 58 61 63 63 64 65 67 69 72 76 78 82 86 85 89 103 107 114 124 127 129 120 133 131 131 135 134 135 134 138 136 137 137 116 119
48 49 47 43 48 54 54 58 60 64 65 67 67 68 69 70 72 76 82 88 92 96 99 101 103 114 118 118 124 137 138 142 135 131 130 135 136 133 138 140 135 131 132
49 54 51 53 49 53 58 54 61 65 62 64 73 74 76 78 81 84 87 90 93 97 102 107 109 113 117 120 123 128 135 147 144 144 144 136 136 139 142 155 147 153 150
56 61 55 59 62 54 50 59 60 54 70 72 74 75 79 82 86 89 91 94 95 97 101 106 109 117 122 125 128 129 131 134 138 138 141 148 147 161 161 157 157 162 167
60 61 53 50 52 52 52 55 58 63 68 69 78 81 83 81 88 92 93 94 98 101 105 105 109 112 115 119 122 125 134 140 141 140 142 146 151 154 156 157 159 162 160
61 60 58 56 56 54 55 58 62 66 70 72 80 84 87 89 91 92 95 97 100 107 110 110 112 113 112 115 118 123 128 130 132 135 138 147 153 155 157 156 157 157 160
62 61 62 60 60 62 63 64 65 67 71 75 78 79 84 89 90 91 93 96 99 102 105 108 110 113 116 118 120 120 122 126 127 129 132 135 137 142 146 153 145 148 149
63 63 60 58 58 58 60 65 65 68 73 77 79 82 85 88 92 96 99 102 107 109 112 116 118 122 112 111 111 110 111 115 121 110 111 81 71 58 125 119 132 140 142
65 62 62 64 64 64 65 67 70 72 75 80 85 89 93 99 103 105 107 110 114 117 92 91 56 56 53 53 52 52 52 53 54 55 55 56 58 59 61 64 67 70 73
63 66 68 68 68 69 71 70 74 78 81 87 92 95 99 105 109 114 117 89 74 73 71 70 68 64 61 59 59 59 59 58 57 56 56 57 59 60 62 64 66 69 70
Wind_Direction
316 327 331 334 329 336 310 308 340 325 272 248 232 228 227 227 228 226 244 245 248 248 248 248 236 237 238 242 242 241 242 243 244 249 249 248 251 252 263 265 255 263 255
315 324 329 333 342 335 329 339 329 334 344 283 237 227 227 225 226 229 227 234 238 235 235 235 236 237 238 239 242 243 243 243 245 244 246 249 252 252 254 261 262 255 262
317 320 326 331 328 346 324 317 347 314 313 281 272 244 225 220 222 224 225 227 232 235 236 238 237 237 237 238 240 243 244 245 246 246 246 247 248 249 250 252 258 253 256
311 315 322 329 335 349 347 340 302 283 286 318 280 242 231 216 218 219 222 225 222 234 236 247 236 238 238 239 239 241 243 245 246 246 247 247 248 251 251 251 253 254 255
305 310 318 322 333 329 348 338 359 337 290 337 321 243 223 219 214 214 217 222 228 232 235 236 238 237 263 239 241 241 243 244 245 247 247 247 257 260 250 264 263 252 265
300 306 310 317 323 329 337 351 355 3 315 57 323 258 218 214 210 213 215 219 218 229 235 236 239 238 238 237 238 241 242 242 243 255 246 248 248 249 252 255 252 252 253
298 301 306 313 320 318 332 352 355 9 53 136 210 239 247 208 206 210 212 215 220 221 224 231 233 231 236 234 246 240 241 241 242 243 244 246 248 247 257 253 252 253 254
296 299 302 305 312 315 315 329 353 358 33 74 360 309 271 220 204 206 211 216 218 224 236 230 229 235 241 237 236 239 241 242 241 242 243 244 246 247 253 258 250 251 254
292 297 296 299 301 303 310 314 323 338 321 267 92 270 211 212 205 206 213 217 220 222 231 238 234 237 236 240 242 241 241 240 242 243 245 244 251 246 246 249 252 255 259
287 286 288 291 294 295 292 295 299 307 317 288 166 219 226 212 204 209 213 215 219 223 230 229 241 238 247 236 234 237 240 240 243 245 250 248 244 245 249 251 250 253 257
287 279 280 285 288 287 286 286 283 281 280 273 234 219 205 222 210 210 215 217 222 227 231 235 236 239 245 243 244 247 247 248 247 243 247 255 246 251 253 249 252 253 254
288 279 274 276 280 283 282 278 275 274 270 258 249 241 224 229 216 220 215 219 224 224 229 234 238 237 242 244 244 242 244 250 258 248 248 251 251 251 250 253 252 259 254
298 281 269 268 271 274 275 275 274 270 271 266 253 241 243 235 248 224 222 227 227 227 232 235 237 244 253 251 255 256 255 259 259 255 260 253 255 258 256 258 251 251 252
310 290 272 262 265 271 274 275 273 270 263 264 258 250 243 246 242 232 235 231 230 238 242 237 242 247 247 245 253 248 256 255 253 257 254 257 255 256 257 258 260 259 259
312 301 280 268 264 265 270 272 274 274 271 265 258 256 253 244 242 241 242 238 237 239 240 246 240 242 244 245 246 247 249 258 253 257 256 257 261 262 258 257 260 261 257
309 300 290 282 271 263 264 266 267 268 268 267 264 255 253 252 252 246 244 241 245 245 246 244 248 244 246 247 247 255 244 249 249 251 257 259 260 261 262 263 261 262 263
309 302 294 285 276 275 275 271 270 270 269 269 267 265 265 258 253 250 247 246 245 245 246 246 249 246 245 246 248 253 249 250 251 252 254 254 255 255 256 259 260 263 264
303 301 299 287 272 278 272 273 273 268 269 269 270 269 268 266 264 261 255 252 251 248 246 247 248 247 248 255 252 248 250 250 252 256 258 257 258 260 259 259 259 264 265
297 299 290 286 282 279 270 270 265 266 264 266 265 266 267 267 266 265 263 261 259 256 254 253 254 251 251 251 252 253 253 252 255 256 257 260 260 260 260 254 261 259 261
302 306 293 289 288 284 278 267 268 268 264 268 266 266 266 265 265 265 265 264 265 266 266 266 262 257 257 257 257 256 254 254 254 255 255 256 257 256 257 259 260 258 259
302 303 297 293 292 280 274 270 270 265 265 264 264 266 268 269 266 265 265 268 268 268 267 267 266 265 263 261 260 260 259 257 258 259 259 257 256 256 257 258 258 259 259
299 299 298 297 291 288 283 272 269 266 265 265 265 264 269 269 267 270 270 271 271 266 266 266 265 265 264 262 262 262 261 261 260 259 259 258 258 259 260 261 260 261 261
297 298 296 293 291 288 286 282 278 276 273 273 274 278 275 272 276 278 279 279 277 275 273 271 270 271 272 272 271 268 265 262 263 263 261 261 261 261 261 260 261 261 261
296 298 296 292 288 287 285 285 284 282 280 280 281 283 280 280 281 282 281 281 280 280 280 279 278 277 277 276 275 275 273 271 270 270 270 271 270 271 266 266 266 263 263
298 299 297 296 296 294 292 289 290 288 285 286 286 287 288 289 288 287 287 287 285 284 284 283 286 285 284 283 281 279 277 276 275 274 274 272 272 271 270 270 270 270 271
297 297 297 299 297 296 295 295 292 292 292 292 292 293 292 292 291 290 289 290 289 287 286 284 282 281 280 279 278 278 277 276 275 273 272 272 271 271 270 270 271 271 272